Вернуться в каталог

SL-8 DEB

АктивенLEO
NORAD 19048·DEBRIS·🇷🇺 Russia

Запущен Apr 5, 1988 с Plesetsk Cosmodrome

Loading…

Ближайшие Пролёты (ближайшие 24 часа)

TLE

СвежийSource: Space-Track

Эпоха: Sep 14, 2026, 11:18 UTC

1 19048U 88029C   26257.47089551  .00002089  00000-0  30350-3 0  9993
2 19048  74.0140 261.7882 0010782 289.9774 228.6417 14.76627892 36784

Отслеживайте SL-8 DEB в реальном времени с AllMySat

Download on the App Store